Weather History for Aberdeen / Amory, MS

Change the Weather History Date:

Thursday, May 1, 2014

  Actual Average (KCBM) Record (KCBM)
Temperature  
Mean Temperature 56 °F -  
Max Temperature 71 °F 76 °F 89 °F (2012)
Min Temperature 41 °F 55 °F 42 °F (2014)
Degree Days  
Heating Degree Days 9    
Growing Degree Days 6 (Base 50)    
Moisture  
Dew Point 41 °F    
Average Humidity 56    
Maximum Humidity 61    
Minimum Humidity 52    
Precipitation  
Precipitation 0.00 in - - ()
Sea Level Pressure  
Sea Level Pressure 30.05 in    
Wind  
Wind Speed 2 mph (West)    
Max Wind Speed 10 mph    
Max Gust Speed 18 mph    
Visibility 9 miles    
Events      
Averages and records for this station are not official NWS values.
T = Trace of Precipitation, MM = Missing Value Source: NWS Daily Summary

Daily Weather History Graph

Daily Weather History Graph

Search for Another Location

Airport:

Trip Planner

Search our weather history database for the weather conditions in past years. The results will help you decide how hot, cold, wet, or windy it might be!

Date:

Astronomy

May. 01, 2014 Rise Set
Actual Time 6:05 AM CDT 7:37 PM CDT
Civil Twilight 5:38 AM CDT 8:04 PM CDT
Nautical Twilight 5:06 AM CDT 8:36 PM CDT
Astronomical Twilight 4:32 AM CDT 9:09 PM CDT
Moon 7:55 AM CDT (5/1) 10:07 PM CDT (5/1)
Length of Visible Light 14h 25m
Length of Day
13h 32m
Waxing Crescent, 7% of the Moon is Illuminated
May 1
Waxing Crescent
May 6
First Quarter
May 14
Full
May 21
Last Quarter
May 28
New

Hourly Weather History & Observations

Time (CDT) Temp. Dew Point Humidity Pressure Visibility Wind Dir Wind Speed Gust Speed Precip Events Conditions
12:15 AM 51.8 °F 35.6 °F 54% 30.07 in 10.0 mi Calm Calm - N/A   Mostly Cloudy
12:35 AM 50.0 °F 33.8 °F 54% 30.07 in 10.0 mi Calm Calm - N/A   Clear
12:55 AM 48.2 °F 33.8 °F 58% 30.07 in 10.0 mi Calm Calm - N/A   Clear
1:15 AM 48.2 °F 33.8 °F 58% 30.07 in 10.0 mi Calm Calm - N/A   Clear
1:35 AM 48.2 °F 33.8 °F 58% 30.07 in 10.0 mi Calm Calm - N/A   Clear
1:55 AM 46.4 °F 32.0 °F 57% 30.07 in 10.0 mi Calm Calm - N/A   Clear
2:15 AM 44.6 °F 32.0 °F 61% 30.07 in 10.0 mi Calm Calm - N/A   Clear
2:35 AM 44.6 °F 32.0 °F 61% 30.07 in 8.0 mi Calm Calm - N/A   Clear
3:15 AM 44.6 °F 30.2 °F 57% 30.07 in 8.0 mi Calm Calm - N/A   Clear
3:35 AM 44.6 °F 30.2 °F 57% 30.08 in 2.0 mi Calm Calm - N/A   Haze
3:55 AM 44.6 °F 30.2 °F 57% 30.08 in 4.0 mi Calm Calm - N/A   Haze
4:15 AM 44.6 °F 30.2 °F 57% 30.08 in 2.5 mi Calm Calm - N/A   Haze
4:35 AM 44.6 °F 30.2 °F 57% 30.08 in 7.0 mi Calm Calm - N/A   Clear
5:15 AM 42.8 °F 30.2 °F 61% 30.08 in 5.0 mi Calm Calm - N/A   Haze
5:35 AM 42.8 °F 28.4 °F 57% 30.08 in 8.0 mi Calm Calm - N/A   Clear
5:55 AM 42.8 °F 28.4 °F 57% 30.08 in 9.0 mi Calm Calm - N/A   Clear
6:15 AM 42.8 °F 28.4 °F 57% 30.08 in 3.0 mi Calm Calm - N/A   Haze
6:35 AM 41.0 °F 28.4 °F 61% 30.09 in 1.5 mi Calm Calm - N/A   Haze
6:55 AM 42.8 °F 28.4 °F 57% 30.10 in 5.0 mi Calm Calm - N/A   Haze
7:15 AM 44.6 °F 30.2 °F 57% 30.10 in 9.0 mi Calm Calm - N/A   Clear
7:35 AM 46.4 °F 32.0 °F 57% 30.10 in 9.0 mi Calm Calm - N/A   Clear
7:55 AM 48.2 °F 33.8 °F 58% 30.10 in 10.0 mi WSW 3.5 mph - N/A   Clear
8:15 AM 51.8 °F 35.6 °F 54% 30.11 in 10.0 mi WSW 3.5 mph - N/A   Clear
8:35 AM 53.6 °F 37.4 °F 54% 30.11 in 10.0 mi West 5.8 mph - N/A   Clear
8:55 AM 55.4 °F 39.2 °F 54% 30.10 in 9.0 mi WSW 6.9 mph - N/A   Clear
9:35 AM 59.0 °F 42.8 °F 55% 30.11 in 10.0 mi West 4.6 mph - N/A   Clear
10:35 AM 64.4 °F 48.2 °F 56% 30.10 in 10.0 mi NW 10.4 mph - N/A   Clear
11:15 AM 66.2 °F 50.0 °F 56% 30.10 in 9.0 mi West 5.8 mph - N/A   Clear
11:35 AM 66.2 °F 50.0 °F 56% 30.10 in 10.0 mi West 8.1 mph - N/A   Clear
11:55 AM 68.0 °F 51.8 °F 56% 30.09 in 10.0 mi West 8.1 mph - N/A   Clear
12:15 PM 69.8 °F 51.8 °F 53% 30.08 in 10.0 mi WSW 9.2 mph - N/A   Clear
12:35 PM 69.8 °F 51.8 °F 53% 30.08 in 10.0 mi West 5.8 mph 16.1 mph N/A   Clear
12:55 PM 69.8 °F 51.8 °F 53% 30.07 in 10.0 mi NNW 10.4 mph 16.1 mph N/A   Clear
1:35 PM 69.8 °F 53.6 °F 56% 30.06 in 10.0 mi SW 9.2 mph - N/A   Clear
1:55 PM 69.8 °F 53.6 °F 56% 30.06 in 10.0 mi WSW 8.1 mph - N/A   Clear
2:15 PM 71.6 °F 53.6 °F 53% 30.05 in 10.0 mi SW 9.2 mph - N/A   Clear
2:35 PM 71.6 °F 53.6 °F 53% 30.04 in 10.0 mi WNW 9.2 mph - N/A   Clear
2:55 PM 71.6 °F 53.6 °F 53% 30.03 in 10.0 mi WSW 6.9 mph 16.1 mph N/A   Clear
3:15 PM 71.6 °F 55.4 °F 57% 30.02 in 10.0 mi SW 9.2 mph - N/A   Clear
3:35 PM 71.6 °F 55.4 °F 57% 30.02 in 10.0 mi West 8.1 mph 18.4 mph N/A   Clear
3:55 PM 71.6 °F 55.4 °F 57% 30.01 in 9.0 mi SW 10.4 mph - N/A   Clear
4:15 PM 71.6 °F 55.4 °F 57% 30.01 in 10.0 mi West 9.2 mph - N/A   Clear
4:35 PM 71.6 °F 53.6 °F 53% 30.00 in 9.0 mi WSW 8.1 mph 17.3 mph N/A   Clear
4:55 PM 71.6 °F 53.6 °F 53% 30.00 in 10.0 mi West 4.6 mph - N/A   Clear
5:15 PM 71.6 °F 55.4 °F 57% 30.00 in 9.0 mi WSW 4.6 mph - N/A   Clear
5:35 PM 71.6 °F 53.6 °F 53% 30.00 in 10.0 mi WNW 10.4 mph - N/A   Clear
5:55 PM 69.8 °F 53.6 °F 56% 30.00 in 10.0 mi SW 6.9 mph - N/A   Clear
6:15 PM 69.8 °F 53.6 °F 56% 29.99 in 10.0 mi West 9.2 mph - N/A   Clear
6:35 PM 69.8 °F 51.8 °F 53% 29.99 in 10.0 mi WNW 6.9 mph - N/A   Clear
6:55 PM 68.0 °F 51.8 °F 56% 29.99 in 10.0 mi West 4.6 mph - N/A   Clear
7:15 PM 66.2 °F 50.0 °F 56% 30.00 in 10.0 mi West 4.6 mph - N/A   Clear
7:35 PM 64.4 °F 46.4 °F 52% 30.00 in 10.0 mi WNW 4.6 mph - N/A   Clear
7:55 PM 62.6 °F 44.6 °F 52% 30.01 in 10.0 mi Calm Calm - N/A   Clear
8:15 PM 60.8 °F 44.6 °F 55% 30.01 in 10.0 mi West 3.5 mph - N/A   Clear
8:35 PM 59.0 °F 42.8 °F 55% 30.02 in 10.0 mi Calm Calm - N/A   Clear
8:55 PM 55.4 °F 39.2 °F 54% 30.02 in 10.0 mi Calm Calm - N/A   Clear
9:15 PM 53.6 °F 37.4 °F 54% 30.02 in 10.0 mi Calm Calm - N/A   Clear
9:35 PM 51.8 °F 35.6 °F 54% 30.03 in 10.0 mi Calm Calm - N/A   Clear
9:55 PM 51.8 °F 35.6 °F 54% 30.03 in 10.0 mi Calm Calm - N/A   Clear
10:15 PM 51.8 °F 35.6 °F 54% 30.04 in 10.0 mi Calm Calm - N/A   Clear
10:35 PM 50.0 °F 33.8 °F 54% 30.04 in 10.0 mi Calm Calm - N/A   Clear
10:55 PM 50.0 °F 33.8 °F 54% 30.05 in 10.0 mi Calm Calm - N/A   Clear
11:15 PM 51.8 °F 35.6 °F 54% 30.04 in 10.0 mi Calm Calm - N/A   Clear
11:35 PM 50.0 °F 33.8 °F 54% 30.04 in 10.0 mi Calm Calm - N/A   Clear
11:55 PM 50.0 °F 33.8 °F 54% 30.03 in 10.0 mi Calm Calm - N/A   Clear